Home   Weather   Lichfield   Past weeks
Flag for United Kingdom

Past Weather in Lichfield, England, United Kingdom — Yesterday and Last 2 Weeks

Now
50 °F

Light rain. Passing clouds.


Feels Like: 46 °F
Forecast: 53 / 46 °F
Wind: 9 mph from Southwest

Location: Birmingham / Airport

Current Time: Dec 6, 2019 at 6:45:54 am

Latest Report: Dec 6, 2019 at 6:20 am


Visibility: N/A

Pressure: 29.62 "Hg

Humidity: 100%

Dew Point: 50 °F

Location of LichfieldLocation

Past Weather in Lichfield — Graph

°F

Lichfield Temperature Yesterday

Maximum temperature yesterday: 50 °F (at 10:50 pm)
Minimum temperature yesterday: 36 °F (at 5:20 am)
Average temperature yesterday: 43 °F

High & Low Weather Summary for the Past Weeks

 TemperatureHumidityPressure
High55 °F (Nov 26, 1:20 pm)100% (Nov 21, 11:20 pm)30.45 "Hg (Nov 21, 11:20 pm)
Low27 °F (Nov 30, 2:20 am)71% (Dec 3, 1:20 pm)29.00 "Hg (Nov 27, 5:50 am)
Average42 °F94%29.77 "Hg
* Reported Nov 21 5:20 am — Dec 6 5:50 am, Lichfield. Weather by CustomWeather, © 2019

Note: Actual official high and low records may vary slightly from our data, if they occured in-between our weather recording intervals... More about our weather records

Lichfield Weather History for the Previous 24 Hours

Scroll right to see more
 ConditionsComfort  
Time TempWeatherWind HumidityBarometerVisibility
5:50 am
Fri, Dec 6
50 °FRain. Passing clouds.9 mph100%29.62 "Hg4 mi
5:20 am50 °FLight rain. Passing clouds.10 mph100%29.62 "Hg4 mi
4:50 am50 °FLight rain. Mostly cloudy.9 mph100%29.65 "Hg4 mi
4:20 am50 °FLight rain. Mostly cloudy.10 mph100%29.65 "Hg4 mi
3:50 am50 °FLow clouds.9 mph100%29.68 "Hg4 mi
3:20 am50 °FOvercast.12 mph100%29.68 "Hg4 mi
2:50 am50 °FOvercast.10 mph94%29.68 "HgN/A
2:20 am50 °FOvercast.10 mph94%29.68 "HgN/A
1:50 am50 °FOvercast.13 mph94%29.71 "HgN/A
1:20 am50 °FPassing clouds.12 mph94%29.71 "HgN/A
12:50 am50 °FPassing clouds.12 mph94%29.71 "HgN/A
12:20 am50 °FOvercast.15 mph94%29.74 "HgN/A
11:50 pm
Thu, Dec 5
50 °FPassing clouds.14 mph94%29.74 "HgN/A
11:20 pm50 °FPassing clouds.14 mph88%29.74 "HgN/A
10:50 pm50 °FLight rain. Passing clouds.14 mph94%29.74 "HgN/A
10:20 pm48 °FPassing clouds.10 mph94%29.77 "HgN/A
9:50 pm48 °FLight rain. Passing clouds.9 mph94%29.77 "HgN/A
9:20 pm48 °FPassing clouds.12 mph87%29.77 "HgN/A
8:50 pm48 °FPassing clouds.14 mph87%29.80 "HgN/A
8:20 pm48 °FPartly cloudy.14 mph87%29.80 "HgN/A
7:50 pm48 °FPartly cloudy.12 mph87%29.80 "HgN/A
7:20 pm46 °FPassing clouds.9 mph93%29.83 "HgN/A
6:50 pm46 °FPassing clouds.12 mph87%29.83 "HgN/A
6:20 pm46 °FPassing clouds.13 mph87%29.83 "HgN/A
5:50 pm46 °FPassing clouds.14 mph87%29.83 "HgN/A
5:20 pm46 °FPassing clouds.14 mph87%29.83 "HgN/A
4:50 pm46 °FPassing clouds.13 mph87%29.86 "HgN/A
4:20 pm46 °FPassing clouds.9 mph87%29.89 "HgN/A
3:50 pm46 °FPassing clouds.12 mph87%29.89 "HgN/A
3:20 pm46 °FLight rain. Scattered clouds.9 mph87%29.89 "HgN/A
2:50 pm46 °FLight rain. Passing clouds.12 mph87%29.92 "HgN/A
2:20 pm45 °FPassing clouds.9 mph93%29.92 "HgN/A
1:50 pm45 °FScattered clouds.10 mph93%29.95 "HgN/A
1:20 pm45 °FScattered clouds.9 mph93%29.95 "HgN/A
12:50 pm45 °FBroken clouds.12 mph87%29.98 "HgN/A
12:20 pm45 °FBroken clouds.9 mph93%30.01 "HgN/A
11:50 am45 °FScattered clouds.10 mph93%30.04 "HgN/A
11:20 am43 °FScattered clouds.8 mph100%30.04 "Hg6 mi
10:50 am41 °FScattered clouds.5 mph100%30.07 "HgN/A
10:20 am41 °FPartly sunny.6 mph93%30.07 "Hg6 mi
9:50 am39 °FBroken clouds.8 mph100%30.07 "Hg4 mi
9:20 am37 °FFog.7 mph100%30.07 "Hg2 mi
8:50 am37 °FFog.7 mph100%30.09 "Hg0 mi
8:20 am36 °FFog.8 mph100%30.09 "Hg0 mi
7:50 am36 °FFog.6 mph100%30.09 "Hg3 mi
7:20 am37 °FFog.6 mph100%30.09 "Hg2 mi
6:50 am37 °FFog.8 mph93%30.09 "Hg1 mi
6:20 am37 °FFog.7 mph100%30.09 "Hg1 mi
Weather by CustomWeather, © 2019

See weather overview

Advertising